TSC879 LFBO-CYUL

Flight info

Callsign TSC879
Flight time N/A
Altitude 34000
Route LACOU DCT LERGI DCT TALIG DCT LULOX DCT ADARA/M078F350 NATF MUSAK/N0444F360 N308A MIILS DCT TIBOS ROCKT3
Aircraft A21N/M-SDE3FGHIRWY/LB1

Departure

Time 2026-04-30 12:23
Airport Toulouse-Blagnac Airport (LFBO)

Arrival

Time N/A
Airport Montreal / Pierre Elliott Trudeau International Airport (CYUL)
Time Latitude Longitude Altitude Speed Heading
2026-04-30 12:21 43.63713 1.35790 495 ft 6 kts 170°
2026-04-30 12:21 43.63694 1.35806 495 ft 0 kts 140°
2026-04-30 12:22 43.63693 1.35808 495 ft 0 kts 140°
2026-04-30 12:22 43.63679 1.35823 495 ft 12 kts 141°
2026-04-30 12:22 43.63431 1.36084 499 ft 81 kts 142°
2026-04-30 12:23 43.62840 1.36696 495 ft 139 kts 142°
2026-04-30 12:23 43.61930 1.37644 556 ft 184 kts 141°
2026-04-30 12:23 43.60914 1.38669 1199 ft 183 kts 142°
2026-04-30 12:23 43.59788 1.39247 1875 ft 185 kts 175°
2026-04-30 12:24 43.58520 1.38893 2194 ft 200 kts 202°
2026-04-30 12:24 43.57444 1.37633 2444 ft 219 kts 234°
2026-04-30 12:24 43.56969 1.35607 2682 ft 235 kts 269°
2026-04-30 12:24 43.57434 1.33415 2863 ft 252 kts 309°
2026-04-30 12:25 43.58811 1.31968 3149 ft 259 kts 343°
2026-04-30 12:25 43.60538 1.31532 3580 ft 264 kts 359°
2026-04-30 12:25 43.62353 1.31438 4181 ft 267 kts
2026-04-30 12:25 43.62447 1.31435 4214 ft 267 kts
2026-04-30 12:26 43.64252 1.31339 4853 ft 269 kts 359°
2026-04-30 12:26 43.65023 1.31280 5126 ft 269 kts 358°
2026-04-30 12:26 43.66869 1.31086 5794 ft 270 kts 354°
2026-04-30 12:26 43.68698 1.30514 6459 ft 273 kts 343°
2026-04-30 12:27 43.70450 1.29520 7072 ft 276 kts 336°
2026-04-30 12:27 43.72169 1.28404 7630 ft 280 kts 335°
2026-04-30 12:27 43.73933 1.27239 8170 ft 284 kts 335°
2026-04-30 12:27 43.75730 1.26050 8709 ft 288 kts 334°
2026-04-30 12:28 43.77533 1.24862 9236 ft 292 kts 334°
2026-04-30 12:28 43.79333 1.23679 9744 ft 296 kts 334°
2026-04-30 12:28 43.81175 1.22469 10253 ft 300 kts 334°
2026-04-30 12:28 43.83107 1.21201 10580 ft 312 kts 334°
2026-04-30 12:29 43.85107 1.19888 10828 ft 325 kts 334°
2026-04-30 12:29 43.87181 1.18528 11076 ft 338 kts 334°
2026-04-30 12:29 43.89317 1.17127 11509 ft 344 kts 334°
2026-04-30 12:29 43.91473 1.15714 12051 ft 346 kts 333°
2026-04-30 12:30 43.93652 1.14284 12582 ft 348 kts 333°
2026-04-30 12:30 43.95862 1.12833 13082 ft 351 kts 333°
2026-04-30 12:30 43.98083 1.11371 13564 ft 355 kts 333°
2026-04-30 12:30 44.00297 1.09914 14063 ft 357 kts 333°
2026-04-30 12:31 44.02530 1.08442 14523 ft 360 kts 333°
2026-04-30 12:31 44.04826 1.06929 14984 ft 363 kts 333°
2026-04-30 12:31 44.07109 1.05421 15476 ft 365 kts 333°
2026-04-30 12:31 44.09377 1.03922 15920 ft 368 kts 332°
2026-04-30 12:32 44.11612 1.02443 16338 ft 370 kts 332°
2026-04-30 12:32 44.13844 1.00965 16760 ft 372 kts 332°
2026-04-30 12:32 44.16174 0.99420 17176 ft 375 kts 332°
2026-04-30 12:32 44.18533 0.97854 17589 ft 377 kts 332°
2026-04-30 12:33 44.20889 0.96288 17984 ft 380 kts 332°
2026-04-30 12:33 44.23267 0.94705 18387 ft 382 kts 332°
2026-04-30 12:33 44.25637 0.93129 18760 ft 385 kts 332°
2026-04-30 12:33 44.28028 0.91538 19143 ft 387 kts 333°
2026-04-30 12:34 44.30458 0.89993 19526 ft 390 kts 335°
2026-04-30 12:34 44.32980 0.88535 19895 ft 392 kts 336°
2026-04-30 12:34 44.35482 0.87118 20244 ft 394 kts 336°
2026-04-30 12:34 44.37987 0.85706 20596 ft 397 kts 336°
2026-04-30 12:35 44.40503 0.84283 20935 ft 399 kts 336°
2026-04-30 12:35 44.43091 0.82812 21275 ft 401 kts 336°
2026-04-30 12:35 44.45671 0.81340 21609 ft 403 kts 336°
2026-04-30 12:35 44.48240 0.79874 21933 ft 406 kts 337°
2026-04-30 12:36 44.50866 0.78373 22230 ft 409 kts 337°
2026-04-30 12:36 44.53500 0.76868 22537 ft 411 kts 337°
2026-04-30 12:36 44.56118 0.75370 22856 ft 413 kts 337°
2026-04-30 12:36 44.58804 0.73828 23160 ft 415 kts 337°
2026-04-30 12:37 44.61460 0.72304 23454 ft 417 kts 337°
2026-04-30 12:37 44.64131 0.70766 23748 ft 419 kts 337°
2026-04-30 12:37 44.66830 0.69209 24018 ft 422 kts 338°
2026-04-30 12:37 44.69556 0.67643 24321 ft 424 kts 338°
2026-04-30 12:38 44.72295 0.66065 24617 ft 426 kts 338°
2026-04-30 12:38 44.75023 0.64487 24894 ft 428 kts 338°
2026-04-30 12:38 44.77761 0.62903 25172 ft 429 kts 338°
2026-04-30 12:38 44.80536 0.61298 25461 ft 431 kts 339°
2026-04-30 12:39 44.83288 0.59702 25742 ft 432 kts 339°
2026-04-30 12:39 44.86069 0.58091 26001 ft 434 kts 339°
2026-04-30 12:39 44.88846 0.56478 26273 ft 436 kts 339°
2026-04-30 12:39 44.91674 0.54835 26532 ft 437 kts 339°
2026-04-30 12:40 44.94483 0.53204 26791 ft 439 kts 339°
2026-04-30 12:40 44.97268 0.51543 27027 ft 441 kts 336°
2026-04-30 12:40 44.99969 0.49502 27254 ft 443 kts 329°
2026-04-30 12:40 45.02393 0.47110 27493 ft 445 kts 322°
2026-04-30 12:41 45.04663 0.44410 27749 ft 446 kts 320°
2026-04-30 12:41 45.06976 0.41521 27964 ft 447 kts 319°
2026-04-30 12:41 45.09315 0.38572 28206 ft 449 kts 319°
2026-04-30 12:41 45.11426 0.35913 28397 ft 450 kts 319°
2026-04-30 12:42 45.13508 0.33300 28579 ft 452 kts 319°
2026-04-30 12:42 45.15528 0.30768 28769 ft 452 kts 319°
2026-04-30 12:42 45.17834 0.27884 28974 ft 454 kts 319°
2026-04-30 12:42 45.19962 0.25226 29136 ft 455 kts 319°
2026-04-30 12:43 45.22182 0.22451 29317 ft 457 kts 319°
2026-04-30 12:43 45.24437 0.19632 29523 ft 458 kts 319°
2026-04-30 12:43 45.26834 0.16631 29792 ft 457 kts 319°
2026-04-30 12:43 45.29131 0.13750 30083 ft 456 kts 320°
2026-04-30 12:44 45.31491 0.10788 30372 ft 455 kts 320°
2026-04-30 12:44 45.33826 0.07856 30629 ft 454 kts 319°
2026-04-30 12:44 45.36136 0.04954 30843 ft 454 kts 320°
2026-04-30 12:44 45.38458 0.02032 31072 ft 453 kts 319°
2026-04-30 12:45 45.40805 -0.00924 31293 ft 452 kts 319°
2026-04-30 12:45 45.43119 -0.03843 31510 ft 452 kts 319°
2026-04-30 12:45 45.45410 -0.06736 31731 ft 451 kts 319°
2026-04-30 12:45 45.47756 -0.09702 31937 ft 451 kts 319°
2026-04-30 12:46 45.50021 -0.12568 32124 ft 450 kts 319°
2026-04-30 12:46 45.52356 -0.15528 32348 ft 449 kts 319°
2026-04-30 12:46 45.54614 -0.18392 32561 ft 449 kts 319°
2026-04-30 12:46 45.56892 -0.21288 32768 ft 449 kts 318°
2026-04-30 12:47 45.59201 -0.24225 32910 ft 449 kts 318°
2026-04-30 12:47 45.61495 -0.27145 33097 ft 450 kts 318°
2026-04-30 12:47 45.63776 -0.30053 33263 ft 450 kts 318°
2026-04-30 12:47 45.66060 -0.32970 33451 ft 450 kts 318°
2026-04-30 12:48 45.68351 -0.35898 33585 ft 452 kts 318°
2026-04-30 12:48 45.70618 -0.38798 33695 ft 453 kts 318°
2026-04-30 12:48 45.72903 -0.41723 33845 ft 453 kts 318°
2026-04-30 12:48 45.75143 -0.44594 34011 ft 454 kts 318°
2026-04-30 12:49 45.79713 -0.50468 34070 ft 455 kts 318°
2026-04-30 12:49 45.84282 -0.56347 34063 ft 455 kts 318°
2026-04-30 12:50 45.88839 -0.62231 34087 ft 455 kts 319°
2026-04-30 12:50 45.93215 -0.67889 34071 ft 455 kts 318°
2026-04-30 12:51 45.97686 -0.73680 34080 ft 455 kts 318°
2026-04-30 12:51 46.01873 -0.79118 34049 ft 456 kts 318°
2026-04-30 12:52 46.05783 -0.84202 34036 ft 456 kts 318°
2026-04-30 12:52 46.09788 -0.89419 34038 ft 457 kts 318°
2026-04-30 12:53 46.13277 -0.93978 34056 ft 458 kts 318°
2026-04-30 12:53 46.17321 -0.99272 34068 ft 457 kts 318°
2026-04-30 12:54 46.21400 -1.04624 34069 ft 456 kts 318°
2026-04-30 12:54 46.25531 -1.10054 34068 ft 456 kts 318°
2026-04-30 12:55 46.30008 -1.15950 34058 ft 456 kts 318°
2026-04-30 12:55 46.34211 -1.21501 34067 ft 457 kts 318°
2026-04-30 12:56 46.38443 -1.27100 34065 ft 457 kts 318°
2026-04-30 12:56 46.42473 -1.32445 34049 ft 456 kts 318°
2026-04-30 12:57 46.46247 -1.37462 34064 ft 457 kts 318°
2026-04-30 12:57 46.50758 -1.43469 34042 ft 455 kts 318°
2026-04-30 12:58 46.54986 -1.49114 34050 ft 456 kts 318°
2026-04-30 12:58 46.59054 -1.54555 34049 ft 456 kts 318°
2026-04-30 12:59 46.63652 -1.60717 34045 ft 456 kts 318°
2026-04-30 12:59 46.67941 -1.66480 34041 ft 456 kts 317°
2026-04-30 13:00 46.72281 -1.72324 34035 ft 456 kts 317°
2026-04-30 13:00 46.76598 -1.78150 34040 ft 455 kts 317°
2026-04-30 13:01 46.80895 -1.83967 34050 ft 456 kts 317°
2026-04-30 13:01 46.85457 -1.90155 34036 ft 456 kts 317°
2026-04-30 13:02 46.89846 -1.96119 34036 ft 457 kts 317°
2026-04-30 13:02 46.94247 -2.02115 34028 ft 456 kts 316°
2026-04-30 13:03 46.98605 -2.08070 34046 ft 457 kts 316°
2026-04-30 13:03 47.03164 -2.14315 34035 ft 457 kts 317°
2026-04-30 13:04 47.07503 -2.20271 34039 ft 457 kts 317°
2026-04-30 13:04 47.11435 -2.25678 34047 ft 456 kts 317°
2026-04-30 13:05 47.15487 -2.31264 34035 ft 457 kts 316°
2026-04-30 13:06 47.21917 -2.40153 34041 ft 457 kts 316°
2026-04-30 13:06 47.26102 -2.45957 34033 ft 457 kts 316°
2026-04-30 13:07 47.30389 -2.51914 34037 ft 457 kts 316°
2026-04-30 13:07 47.34633 -2.57824 34036 ft 457 kts 316°
2026-04-30 13:08 47.39101 -2.64064 34038 ft 458 kts 316°
2026-04-30 13:08 47.43562 -2.70307 34038 ft 457 kts 315°
2026-04-30 13:09 47.47853 -2.76329 34043 ft 457 kts 315°
2026-04-30 13:09 47.52103 -2.82307 34030 ft 458 kts 315°
2026-04-30 13:10 47.56257 -2.88163 34019 ft 458 kts 315°
2026-04-30 13:10 47.60688 -2.94426 34020 ft 459 kts 315°
2026-04-30 13:11 47.65079 -3.00643 34020 ft 458 kts 315°
2026-04-30 13:11 47.69532 -3.06964 34014 ft 457 kts 315°
2026-04-30 13:12 47.73771 -3.13000 34015 ft 458 kts 315°
2026-04-30 13:12 47.78154 -3.19254 34009 ft 458 kts 315°
2026-04-30 13:13 47.84740 -3.28682 34009 ft 457 kts 315°
2026-04-30 13:14 47.91349 -3.38176 34010 ft 457 kts 315°
2026-04-30 13:14 47.98003 -3.47771 34007 ft 457 kts 315°
2026-04-30 13:15 48.04670 -3.57420 34015 ft 455 kts 315°
2026-04-30 13:16 48.09031 -3.63753 34015 ft 454 kts 315°
2026-04-30 13:16 48.12994 -3.69523 34015 ft 453 kts 314°
2026-04-30 13:17 48.19398 -3.78874 34009 ft 454 kts 314°
2026-04-30 13:18 48.26095 -3.88688 34010 ft 455 kts 314°
2026-04-30 13:18 48.32768 -3.98504 34002 ft 456 kts 314°
2026-04-30 13:19 48.37179 -4.05012 34001 ft 454 kts 314°
2026-04-30 13:19 48.41605 -4.11560 34002 ft 453 kts 314°
2026-04-30 13:20 48.45945 -4.17999 34006 ft 454 kts 314°
2026-04-30 13:20 48.50355 -4.24560 34008 ft 454 kts 314°
2026-04-30 13:21 48.54797 -4.31183 34009 ft 455 kts 314°
2026-04-30 13:22 48.61196 -4.40755 34005 ft 456 kts 314°
2026-04-30 13:22 48.67643 -4.50437 33992 ft 456 kts 314°
2026-04-30 13:23 48.74130 -4.60212 33987 ft 456 kts 314°
2026-04-30 13:24 48.82930 -4.73539 33983 ft 456 kts 313°
2026-04-30 13:25 48.91756 -4.86976 33979 ft 457 kts 313°
2026-04-30 13:26 49.02817 -5.03912 33987 ft 457 kts 313°
2026-04-30 13:28 49.13844 -5.20912 33989 ft 457 kts 313°
2026-04-30 13:28 49.20472 -5.31187 33991 ft 459 kts 313°
2026-04-30 13:29 49.29304 -5.44944 33987 ft 461 kts 313°
2026-04-30 13:31 49.40442 -5.62404 33988 ft 462 kts 312°
2026-04-30 13:32 49.50890 -5.79349 33990 ft 461 kts 306°
2026-04-30 13:33 49.57871 -5.95444 33989 ft 459 kts 298°
2026-04-30 13:34 49.62767 -6.07775 33993 ft 459 kts 298°
2026-04-30 13:35 49.69208 -6.23991 33996 ft 461 kts 298°
2026-04-30 13:36 49.75820 -6.40722 33994 ft 463 kts 298°
2026-04-30 13:36 49.80761 -6.53296 34000 ft 464 kts 298°
2026-04-30 13:37 49.85745 -6.66036 33994 ft 466 kts 297°
2026-04-30 13:38 49.90727 -6.78833 33994 ft 466 kts 297°
2026-04-30 13:39 49.97356 -6.95965 33983 ft 468 kts 296°
2026-04-30 13:40 50.02363 -7.08984 33977 ft 471 kts 296°
2026-04-30 13:40 50.05693 -7.17676 33976 ft 471 kts 296°
2026-04-30 13:41 50.09029 -7.26412 33977 ft 472 kts 296°
2026-04-30 13:41 50.12302 -7.35010 33970 ft 474 kts 296°
2026-04-30 13:42 50.15561 -7.43607 33976 ft 474 kts 296°
2026-04-30 13:42 50.20574 -7.56880 33982 ft 476 kts 296°
2026-04-30 13:43 50.23905 -7.65733 33970 ft 477 kts 295°
2026-04-30 13:43 50.27213 -7.74561 33980 ft 478 kts 295°
2026-04-30 13:44 50.30521 -7.83432 33986 ft 479 kts 295°
2026-04-30 13:44 50.33867 -7.92436 33988 ft 480 kts 295°
2026-04-30 13:45 50.37985 -8.06579 33983 ft 475 kts 283°
2026-04-30 13:46 50.39925 -8.16333 33962 ft 473 kts 281°
2026-04-30 13:46 50.41783 -8.26058 33966 ft 474 kts 281°
2026-04-30 13:47 50.43671 -8.35913 33966 ft 475 kts 281°
2026-04-30 13:47 50.45558 -8.45758 33994 ft 476 kts 281°
2026-04-30 13:48 50.47451 -8.55663 33966 ft 476 kts 281°
2026-04-30 13:48 50.49343 -8.65610 33981 ft 478 kts 280°
2026-04-30 13:49 50.51217 -8.75512 33983 ft 479 kts 280°
2026-04-30 13:49 50.53106 -8.85557 33958 ft 480 kts 280°
2026-04-30 13:50 50.54956 -8.95437 33975 ft 482 kts 280°
2026-04-30 13:50 50.57755 -9.10477 33976 ft 481 kts 279°
2026-04-30 13:51 50.59600 -9.20475 33947 ft 482 kts 280°
2026-04-30 13:51 50.61456 -9.30583 33955 ft 482 kts 279°
2026-04-30 13:52 50.63302 -9.40691 33965 ft 483 kts 279°
2026-04-30 13:52 50.65134 -9.50782 33964 ft 485 kts 280°
2026-04-30 13:53 50.66970 -9.60943 33958 ft 485 kts 280°
2026-04-30 13:53 50.68796 -9.71092 33966 ft 483 kts 279°
2026-04-30 13:54 50.70601 -9.81198 33958 ft 484 kts 279°
2026-04-30 13:54 50.72403 -9.91344 33977 ft 485 kts 279°
2026-04-30 13:55 50.74194 -10.01482 33979 ft 485 kts 279°
2026-04-30 13:55 50.75991 -10.11724 33979 ft 486 kts 279°
2026-04-30 13:56 50.77769 -10.21899 33981 ft 486 kts 279°
2026-04-30 13:56 50.79549 -10.32155 33986 ft 487 kts 279°
2026-04-30 13:57 50.81313 -10.42372 33981 ft 486 kts 280°
2026-04-30 13:57 50.83078 -10.52657 33964 ft 488 kts 280°
2026-04-30 13:58 50.85707 -10.68087 33969 ft 487 kts 279°
2026-04-30 13:59 50.87435 -10.78321 33979 ft 488 kts 279°
2026-04-30 13:59 50.89170 -10.88627 33978 ft 488 kts 279°
2026-04-30 14:00 50.90889 -10.98918 33970 ft 488 kts 280°
2026-04-30 14:00 50.93457 -11.14406 33967 ft 490 kts 280°
2026-04-30 14:01 50.95161 -11.24767 33971 ft 490 kts 281°
2026-04-30 14:01 50.96855 -11.35118 33979 ft 491 kts 280°
2026-04-30 14:02 50.98551 -11.45555 33960 ft 492 kts 281°
2026-04-30 14:02 51.00229 -11.55935 33968 ft 491 kts 281°
2026-04-30 14:03 51.01909 -11.66393 33964 ft 491 kts 281°
2026-04-30 14:03 51.03587 -11.76919 33938 ft 491 kts 281°
2026-04-30 14:04 51.05231 -11.87281 33984 ft 491 kts 281°
2026-04-30 14:04 51.06883 -11.97771 34022 ft 492 kts 281°
2026-04-30 14:05 51.08517 -12.08200 33997 ft 491 kts 281°
2026-04-30 14:05 51.10141 -12.18655 33985 ft 491 kts 282°
2026-04-30 14:06 51.12539 -12.34187 33991 ft 491 kts 282°
2026-04-30 14:07 51.14968 -12.50079 33991 ft 490 kts 282°
2026-04-30 14:08 51.17342 -12.65778 33991 ft 491 kts 281°
2026-04-30 14:08 51.19704 -12.81542 33979 ft 491 kts 282°
2026-04-30 14:09 51.21264 -12.92059 33985 ft 490 kts 282°
2026-04-30 14:10 51.23589 -13.07822 33977 ft 489 kts 282°
2026-04-30 14:10 51.25125 -13.18324 33976 ft 489 kts 282°
2026-04-30 14:11 51.26622 -13.28648 33976 ft 490 kts 283°
2026-04-30 14:11 51.28134 -13.39146 33981 ft 491 kts 283°
2026-04-30 14:12 51.29644 -13.49698 33962 ft 490 kts 283°
2026-04-30 14:12 51.31125 -13.60118 33991 ft 491 kts 283°
2026-04-30 14:12 51.31644 -13.63797 34131 ft 489 kts 283°
2026-04-30 14:13 51.32623 -13.70734 34678 ft 480 kts 282°
2026-04-30 14:13 51.33349 -13.75901 34944 ft 477 kts 282°
2026-04-30 14:13 51.34070 -13.81060 34961 ft 477 kts 282°
2026-04-30 14:14 51.35501 -13.91342 34967 ft 478 kts 282°
2026-04-30 14:14 51.36942 -14.01774 34985 ft 482 kts 282°
2026-04-30 14:15 51.38353 -14.12056 34995 ft 482 kts 283°
2026-04-30 14:15 51.39704 -14.21965 34982 ft 482 kts 283°
2026-04-30 14:16 51.41119 -14.32426 34975 ft 482 kts 283°
2026-04-30 14:16 51.42520 -14.42851 34983 ft 482 kts 283°
2026-04-30 14:17 51.43904 -14.53233 35010 ft 481 kts 283°
2026-04-30 14:17 51.45286 -14.63665 34992 ft 481 kts 283°
2026-04-30 14:18 51.46662 -14.74141 34996 ft 480 kts 282°
2026-04-30 14:18 51.48686 -14.89728 34993 ft 480 kts 282°
2026-04-30 14:19 51.50150 -15.05566 34999 ft 480 kts 274°
2026-04-30 14:20 51.50386 -15.16187 35005 ft 479 kts 272°
2026-04-30 14:20 51.50661 -15.32101 35008 ft 479 kts 272°
2026-04-30 14:21 51.50847 -15.42733 35022 ft 477 kts 272°
2026-04-30 14:22 51.51114 -15.58562 35018 ft 476 kts 273°
2026-04-30 14:22 51.51362 -15.74352 35030 ft 475 kts 272°
2026-04-30 14:23 51.51656 -15.95334 35020 ft 473 kts 272°
2026-04-30 14:24 51.51841 -16.10063 35055 ft 472 kts 273°
2026-04-30 14:25 51.52066 -16.30504 35040 ft 470 kts 273°
2026-04-30 14:26 51.52214 -16.46142 35067 ft 469 kts 273°
2026-04-30 14:27 51.52342 -16.61799 35067 ft 468 kts 274°
2026-04-30 14:27 51.52416 -16.72154 35064 ft 467 kts 273°
2026-04-30 14:28 51.52508 -16.87710 34984 ft 466 kts 273°
2026-04-30 14:28 51.52560 -16.97933 35047 ft 465 kts 273°
2026-04-30 14:29 51.52633 -17.18556 35055 ft 463 kts 273°
2026-04-30 14:31 51.52676 -17.44144 35072 ft 461 kts 273°
2026-04-30 14:31 51.52674 -17.59469 35072 ft 460 kts 273°
2026-04-30 14:32 51.52651 -17.74793 35076 ft 460 kts 273°
2026-04-30 14:33 51.52626 -17.84981 35078 ft 458 kts 272°
2026-04-30 14:33 51.52571 -18.00232 35089 ft 457 kts 272°
2026-04-30 14:34 51.52523 -18.10376 35067 ft 456 kts 272°
2026-04-30 14:34 51.52467 -18.20464 35098 ft 456 kts 273°
2026-04-30 14:35 51.52366 -18.35624 35115 ft 455 kts 273°
2026-04-30 14:36 51.52288 -18.45695 35115 ft 454 kts 273°
2026-04-30 14:36 51.52201 -18.55784 35123 ft 453 kts 273°
2026-04-30 14:37 51.52108 -18.65731 35121 ft 453 kts 272°
2026-04-30 14:37 51.52005 -18.75833 35119 ft 452 kts 272°
2026-04-30 14:38 51.51893 -18.85928 35125 ft 451 kts 272°
2026-04-30 14:38 51.51773 -18.95899 35123 ft 451 kts 272°
2026-04-30 14:39 51.51646 -19.05895 35130 ft 450 kts 272°
2026-04-30 14:39 51.51511 -19.15874 35133 ft 449 kts 272°
2026-04-30 14:40 51.51289 -19.30849 35139 ft 448 kts 272°
2026-04-30 14:40 51.51133 -19.40751 35141 ft 447 kts 272°
2026-04-30 14:41 51.50968 -19.50637 35148 ft 446 kts 272°
2026-04-30 14:41 51.50795 -19.60540 35145 ft 446 kts 272°
2026-04-30 14:42 51.50614 -19.70380 35157 ft 446 kts 271°
2026-04-30 14:42 51.50422 -19.80342 35152 ft 446 kts 271°
2026-04-30 14:43 51.50222 -19.90167 35157 ft 445 kts 270°
2026-04-30 14:43 51.49993 -20.00026 35168 ft 445 kts 269°
2026-04-30 14:44 51.49476 -20.09895 35159 ft 446 kts 267°
2026-04-30 14:44 51.48913 -20.19722 35156 ft 445 kts 267°
2026-04-30 14:45 51.48343 -20.29539 35160 ft 443 kts 267°
2026-04-30 14:45 51.47764 -20.39391 35161 ft 443 kts 267°
2026-04-30 14:46 51.47179 -20.49195 35163 ft 444 kts 267°
2026-04-30 14:46 51.46587 -20.58993 35165 ft 443 kts 266°
2026-04-30 14:47 51.45987 -20.68790 35161 ft 443 kts 266°
2026-04-30 14:47 51.45380 -20.78570 35154 ft 443 kts 265°
2026-04-30 14:48 51.44769 -20.88265 35159 ft 443 kts 265°
2026-04-30 14:48 51.44144 -20.98041 35161 ft 442 kts 265°
2026-04-30 14:49 51.43511 -21.07820 35170 ft 442 kts 265°
2026-04-30 14:49 51.42871 -21.17585 35163 ft 442 kts 266°
2026-04-30 14:50 51.41896 -21.32236 35177 ft 443 kts 266°
2026-04-30 14:51 51.40905 -21.46834 35173 ft 443 kts 266°
2026-04-30 14:52 51.39895 -21.61445 35172 ft 443 kts 266°
2026-04-30 14:52 51.38861 -21.76132 35176 ft 444 kts 265°
2026-04-30 14:53 51.37817 -21.90718 35169 ft 443 kts 265°
2026-04-30 14:54 51.36388 -22.10250 35179 ft 444 kts 266°
2026-04-30 14:55 51.35297 -22.24879 35190 ft 445 kts 266°
2026-04-30 14:56 51.33809 -22.44401 35193 ft 445 kts 266°
2026-04-30 14:57 51.32671 -22.59055 35212 ft 444 kts 266°
2026-04-30 14:58 51.31136 -22.78465 35206 ft 445 kts 265°
2026-04-30 14:58 51.29953 -22.93143 35199 ft 446 kts 265°
2026-04-30 15:00 51.27937 -23.17603 35211 ft 446 kts 266°
2026-04-30 15:01 51.26296 -23.37082 35220 ft 445 kts 265°
2026-04-30 15:01 51.25042 -23.51694 35226 ft 445 kts 265°
2026-04-30 15:02 51.24192 -23.61460 35229 ft 445 kts 266°
2026-04-30 15:03 51.22047 -23.85752 35239 ft 445 kts 265°
2026-04-30 15:04 51.19844 -24.10069 35241 ft 445 kts 265°
2026-04-30 15:06 51.17590 -24.34383 35237 ft 447 kts 265°
2026-04-30 15:07 51.15743 -24.53893 35241 ft 448 kts 265°
2026-04-30 15:08 51.13927 -24.72738 35242 ft 450 kts 264°
2026-04-30 15:09 51.11515 -24.97264 35253 ft 452 kts 265°
2026-04-30 15:10 51.09542 -25.16955 35264 ft 454 kts 264°
2026-04-30 15:11 51.06503 -25.46588 35257 ft 455 kts 265°
2026-04-30 15:13 51.03918 -25.71230 35244 ft 458 kts 264°
2026-04-30 15:14 51.00166 -26.06082 35250 ft 460 kts 264°
2026-04-30 15:17 50.95175 -26.50966 35280 ft 462 kts 264°
2026-04-30 15:19 50.90592 -26.90779 35284 ft 462 kts 263°
2026-04-30 17:39 47.95687 -54.33087 36233 ft 446 kts 267°
2026-04-30 17:42 47.94289 -54.78667 36250 ft 444 kts 266°
2026-04-30 17:43 47.93530 -55.01249 36241 ft 444 kts 266°
2026-04-30 17:44 47.92551 -55.28615 36238 ft 441 kts 266°
2026-04-30 17:47 47.90974 -55.69323 36247 ft 442 kts 265°
2026-04-30 17:48 47.89659 -56.00661 36229 ft 441 kts 264°
2026-04-30 17:50 47.88050 -56.36573 36211 ft 443 kts 264°
2026-04-30 17:52 47.86761 -56.63567 36213 ft 443 kts 264°
2026-04-30 17:54 47.84710 -57.04142 36198 ft 444 kts 262°
2026-04-30 17:56 47.82748 -57.40454 36201 ft 444 kts 262°
2026-04-30 17:58 47.81220 -57.67404 36208 ft 445 kts 261°
2026-04-30 18:00 47.79050 -58.03810 36206 ft 445 kts 261°
2026-04-30 18:01 47.77684 -58.25795 36204 ft 445 kts 261°
2026-04-30 18:02 47.75964 -58.52560 36200 ft 445 kts 261°
2026-04-30 18:04 47.74162 -58.79574 36182 ft 445 kts 259°
2026-04-30 18:06 47.71684 -59.15258 36181 ft 445 kts 259°
2026-04-30 18:08 47.69440 -59.46229 36203 ft 445 kts 260°
2026-04-30 18:10 47.66747 -59.81973 36204 ft 445 kts 259°
2026-04-30 18:11 47.64402 -60.11919 36191 ft 446 kts 259°
2026-04-30 18:13 47.62607 -60.34158 36177 ft 444 kts 259°
2026-04-30 18:14 47.60762 -60.56503 36168 ft 445 kts 259°
2026-04-30 18:15 47.58496 -60.83218 36158 ft 442 kts 259°
2026-04-30 18:16 47.56965 -61.00843 36140 ft 442 kts 259°
2026-04-30 18:17 47.56187 -61.09688 36144 ft 442 kts 259°
2026-04-30 18:18 47.55027 -61.22723 36140 ft 442 kts 259°
2026-04-30 18:18 47.54229 -61.31592 36138 ft 442 kts 259°
2026-04-30 18:19 47.53418 -61.40525 36138 ft 441 kts 259°
2026-04-30 18:19 47.52609 -61.49358 36138 ft 441 kts 259°
2026-04-30 18:20 47.51817 -61.57931 36136 ft 441 kts 259°
2026-04-30 18:20 47.50993 -61.66797 36135 ft 441 kts 259°
2026-04-30 18:21 47.50154 -61.75716 36134 ft 441 kts 259°
2026-04-30 18:21 47.49324 -61.84466 36132 ft 441 kts 259°
2026-04-30 18:22 47.48484 -61.93265 36124 ft 441 kts 259°
2026-04-30 18:22 47.47200 -62.06566 36127 ft 441 kts 259°
2026-04-30 18:23 47.46350 -62.15277 36124 ft 440 kts 259°
2026-04-30 18:23 47.45486 -62.24060 36120 ft 439 kts 259°
2026-04-30 18:24 47.44171 -62.37307 36111 ft 439 kts 259°
2026-04-30 18:25 47.43302 -62.45972 36110 ft 439 kts 259°
2026-04-30 18:25 47.41978 -62.59038 36106 ft 438 kts 260°
2026-04-30 18:26 47.40644 -62.72046 36104 ft 438 kts 259°
2026-04-30 18:27 47.39299 -62.85018 36103 ft 437 kts 259°
2026-04-30 18:28 47.37929 -62.98085 36096 ft 436 kts 259°
2026-04-30 18:28 47.36558 -63.11029 36097 ft 436 kts 259°
2026-04-30 18:29 47.34688 -63.28434 36099 ft 436 kts 260°
2026-04-30 18:30 47.32785 -63.45889 36086 ft 435 kts 260°
2026-04-30 18:31 47.31348 -63.58896 36070 ft 433 kts 260°
2026-04-30 18:32 47.29907 -63.71809 36065 ft 432 kts 259°
2026-04-30 18:33 47.28459 -63.84650 36057 ft 432 kts 259°
2026-04-30 18:33 47.26997 -63.97481 36052 ft 432 kts 259°
2026-04-30 18:34 47.25528 -64.10243 36045 ft 431 kts 259°
2026-04-30 18:35 47.24508 -64.19018 36047 ft 431 kts 259°
2026-04-30 18:35 47.23503 -64.27619 36039 ft 430 kts 259°
2026-04-30 18:36 47.22011 -64.40280 36037 ft 428 kts 259°
2026-04-30 18:37 47.20508 -64.52912 36027 ft 428 kts 259°
2026-04-30 18:37 47.19484 -64.61445 36024 ft 428 kts 259°
2026-04-30 18:38 47.18460 -64.69895 36023 ft 428 kts 258°
2026-04-30 18:38 47.17424 -64.78425 36021 ft 427 kts 258°
2026-04-30 18:39 47.16383 -64.86932 36020 ft 427 kts 258°
2026-04-30 18:39 47.15339 -64.95390 36024 ft 427 kts 258°
2026-04-30 18:40 47.14280 -65.03935 36015 ft 427 kts 258°
2026-04-30 18:40 47.13227 -65.12376 36007 ft 428 kts 258°
2026-04-30 18:41 47.12154 -65.20920 36004 ft 428 kts 258°
2026-04-30 18:41 47.11072 -65.29472 35989 ft 428 kts 258°
2026-04-30 18:42 47.09981 -65.38045 35986 ft 429 kts 258°
2026-04-30 18:42 47.08338 -65.50869 35979 ft 430 kts 257°
2026-04-30 18:45 47.02171 -65.97949 35946 ft 431 kts 257°
2026-04-30 18:46 47.01018 -66.06580 35942 ft 432 kts 257°
2026-04-30 18:46 46.99874 -66.15095 35940 ft 432 kts 256°
2026-04-30 18:47 46.98713 -66.23686 35931 ft 432 kts 256°
2026-04-30 18:47 46.97545 -66.32273 35926 ft 431 kts 256°
2026-04-30 18:48 46.96375 -66.40833 35923 ft 431 kts 256°
2026-04-30 18:48 46.95212 -66.49281 35917 ft 430 kts 256°
2026-04-30 18:49 46.94032 -66.57790 35915 ft 431 kts 256°
2026-04-30 18:49 46.92847 -66.66287 35908 ft 432 kts 255°
2026-04-30 18:50 46.91663 -66.74740 35896 ft 432 kts 255°
2026-04-30 18:50 46.90459 -66.83263 35891 ft 432 kts 255°
2026-04-30 18:51 46.89281 -66.91553 35886 ft 432 kts 254°
2026-04-30 18:51 46.88081 -67.00043 35880 ft 433 kts 256°
2026-04-30 18:52 46.87283 -67.08756 35878 ft 437 kts 261°
2026-04-30 18:52 46.86963 -67.17551 35878 ft 438 kts 263°
2026-04-30 18:53 46.86674 -67.26427 35872 ft 439 kts 263°
2026-04-30 18:53 46.86377 -67.35191 35879 ft 438 kts 263°
2026-04-30 18:54 46.86068 -67.43986 35878 ft 439 kts 263°
2026-04-30 18:54 46.85749 -67.52823 35878 ft 440 kts 263°
2026-04-30 18:55 46.85425 -67.61655 35877 ft 440 kts 263°
2026-04-30 18:55 46.84932 -67.74657 35869 ft 441 kts 262°
2026-04-30 18:56 46.84418 -67.87847 35872 ft 441 kts 262°
2026-04-30 18:57 46.83881 -68.01191 35870 ft 442 kts 262°
2026-04-30 18:57 46.83513 -68.10115 35865 ft 443 kts 262°
2026-04-30 18:58 46.82955 -68.23383 35858 ft 444 kts 261°
2026-04-30 18:59 46.82399 -68.36235 35852 ft 445 kts 261°